Location: Del Amo
(33.8464°N, 118.2104°W)
Time: 08:15:52
(UTC+00:00)

Vanguard 1 Rocket - Pass Details

Date: 15 September 2024
Orbit: 650 x 4218 km, 34.3° (Epoch: 09 October)

Event Time Altitude Azimuth Distance (km) Brightness Sun altitude
Rises 12:26:17 0° 257° (WSW) 5,614 - -15.2°
Reaches altitude 10° 12:29:14 10° 257° (WSW) 4,969 - -14.6°
Exits shadow 12:31:02 17° 257° (WSW) 4,614 10.3 -14.3°
Maximum altitude 12:45:35 88° 169° (S) 3,540 10.3 -11.3°
Drops below altitude 10° 13:12:05 10° 84° (E) 7,407 13.9 -5.9°
Sets 13:17:46 0° 85° (E) 8,334 15.5 -4.7°
